Time,TemperatureF,DewpointF,PressureIn,WindDirection,WindDirectionDegrees,WindSpeedMPH,WindSpeedGustMPH,Humidity,HourlyPrecipIn,Conditions,Clouds,dailyrainin,SoftwareType,DateUTC
2013-08-13 00:02:00,69.0,-99.9,-100.00,North,-999,-999.0,-999.0,-999,0.00,,,13.00,,2013-08-13 05:02:00,
2013-08-13 00:12:00,69.0,-99.9,-100.00,North,-999,-999.0,-999.0,-999,0.00,,,13.00,,2013-08-13 05:12:00,
2013-08-13 00:43:00,68.0,-99.9,-100.00,North,-999,-999.0,-999.0,-999,0.00,,,6.00,,2013-08-13 05:43:00,
2013-08-13 00:52:00,68.0,-99.9,-100.00,North,-999,-999.0,-999.0,-999,0.00,,,6.00,,2013-08-13 05:52:00,
2013-08-13 01:02:00,68.0,-99.9,-100.00,North,-999,-999.0,-999.0,-999,0.00,,,6.00,,2013-08-13 06:02:00,
2013-08-13 01:11:00,68.0,-99.9,-100.00,North,-999,-999.0,-999.0,-999,0.00,,,6.00,,2013-08-13 06:11:00,
2013-08-13 01:42:00,69.0,-99.9,-100.00,North,-999,-999.0,-999.0,-999,0.00,,,4.00,,2013-08-13 06:42:00,
2013-08-13 01:53:00,69.0,-99.9,-100.00,North,-999,-999.0,-999.0,-999,0.00,,,4.00,,2013-08-13 06:53:00,
2013-08-13 02:01:00,69.0,-99.9,-100.00,North,-999,-999.0,-999.0,-999,0.00,,,4.00,,2013-08-13 07:01:00,
2013-08-13 02:12:00,69.0,-99.9,-100.00,North,-999,-999.0,-999.0,-999,0.00,,,4.00,,2013-08-13 07:12:00,
2013-08-13 02:42:00,68.0,-99.9,-100.00,North,-999,-999.0,-999.0,-999,0.00,,,0.00,,2013-08-13 07:42:00,
2013-08-13 02:52:00,68.0,-99.9,-100.00,North,-999,-999.0,-999.0,-999,0.00,,,0.00,,2013-08-13 07:52:00,
2013-08-13 03:02:00,68.0,-99.9,-100.00,North,-999,-999.0,-999.0,-999,0.00,,,0.00,,2013-08-13 08:02:00,
2013-08-13 03:11:00,68.0,-99.9,-100.00,North,-999,-999.0,-999.0,-999,0.00,,,0.00,,2013-08-13 08:11:00,
2013-08-13 03:42:00,66.0,-99.9,-100.00,North,-999,-999.0,-999.0,-999,0.00,,,0.00,,2013-08-13 08:42:00,
2013-08-13 03:52:00,66.0,-99.9,-100.00,North,-999,-999.0,-999.0,-999,0.00,,,0.00,,2013-08-13 08:52:00,
2013-08-13 04:01:00,66.0,-99.9,-100.00,North,-999,-999.0,-999.0,-999,0.00,,,0.00,,2013-08-13 09:01:00,
2013-08-13 04:11:00,66.0,-99.9,-100.00,North,-999,-999.0,-999.0,-999,0.00,,,0.00,,2013-08-13 09:11:00,
2013-08-13 04:54:00,65.0,-99.9,-100.00,North,-999,-999.0,-999.0,-999,0.00,,,0.00,,2013-08-13 09:54:00,
2013-08-13 05:03:00,65.0,-99.9,-100.00,North,-999,-999.0,-999.0,-999,0.00,,,0.00,,2013-08-13 10:03:00,
2013-08-13 05:13:00,65.0,-99.9,-100.00,North,-999,-999.0,-999.0,-999,0.00,,,0.00,,2013-08-13 10:13:00,
2013-08-13 05:43:00,65.0,-99.9,-100.00,North,-999,-999.0,-999.0,-999,0.00,,,0.00,,2013-08-13 10:43:00,
2013-08-13 05:53:00,65.0,-99.9,-100.00,North,-999,-999.0,-999.0,-999,0.00,,,0.00,,2013-08-13 10:53:00,
2013-08-13 06:03:00,65.0,-99.9,-100.00,North,-999,-999.0,-999.0,-999,0.00,,,0.00,,2013-08-13 11:03:00,
2013-08-13 06:11:00,65.0,-99.9,-100.00,North,-999,-999.0,-999.0,-999,0.00,,,0.00,,2013-08-13 11:11:00,
2013-08-13 06:42:00,64.0,-99.9,-100.00,North,-999,-999.0,-999.0,-999,0.00,,,0.00,,2013-08-13 11:42:00,
2013-08-13 06:52:00,64.0,-99.9,-100.00,North,-999,-999.0,-999.0,-999,0.00,,,0.00,,2013-08-13 11:52:00,
2013-08-13 07:02:00,64.0,-99.9,-100.00,North,-999,-999.0,-999.0,-999,0.00,,,0.00,,2013-08-13 12:02:00,
2013-08-13 07:12:00,64.0,-99.9,-100.00,North,-999,-999.0,-999.0,-999,0.00,,,0.00,,2013-08-13 12:12:00,
2013-08-13 07:42:00,63.0,-99.9,-100.00,North,-999,-999.0,-999.0,-999,0.00,,,0.00,,2013-08-13 12:42:00,
2013-08-13 07:52:00,63.0,-99.9,-100.00,North,-999,-999.0,-999.0,-999,0.00,,,0.00,,2013-08-13 12:52:00,
2013-08-13 08:02:00,63.0,-99.9,-100.00,North,-999,-999.0,-999.0,-999,0.00,,,0.00,,2013-08-13 13:02:00,
2013-08-13 08:11:00,63.0,-99.9,-100.00,North,-999,-999.0,-999.0,-999,0.00,,,0.00,,2013-08-13 13:11:00,
2013-08-13 08:42:00,64.0,-99.9,-100.00,North,-999,-999.0,-999.0,-999,0.00,,,0.00,,2013-08-13 13:42:00,
2013-08-13 08:52:00,64.0,-99.9,-100.00,North,-999,-999.0,-999.0,-999,0.00,,,0.00,,2013-08-13 13:52:00,
2013-08-13 09:02:00,64.0,-99.9,-100.00,North,-999,-999.0,-999.0,-999,0.00,,,0.00,,2013-08-13 14:02:00,
2013-08-13 09:11:00,64.0,-99.9,-100.00,North,-999,-999.0,-999.0,-999,0.00,,,0.00,,2013-08-13 14:11:00,
2013-08-13 09:42:00,66.0,-99.9,-100.00,North,-999,-999.0,-999.0,-999,0.00,,,0.00,,2013-08-13 14:42:00,
2013-08-13 09:52:00,66.0,-99.9,-100.00,North,-999,-999.0,-999.0,-999,0.00,,,0.00,,2013-08-13 14:52:00,
2013-08-13 10:02:00,66.0,-99.9,-100.00,North,-999,-999.0,-999.0,-999,0.00,,,0.00,,2013-08-13 15:02:00,
2013-08-13 10:11:00,66.0,-99.9,-100.00,North,-999,-999.0,-999.0,-999,0.00,,,0.00,,2013-08-13 15:11:00,
2013-08-13 10:44:00,67.0,-99.9,-100.00,North,-999,-999.0,-999.0,-999,0.00,,,0.00,,2013-08-13 15:44:00,
2013-08-13 10:54:00,67.0,-99.9,-100.00,North,-999,-999.0,-999.0,-999,0.00,,,0.00,,2013-08-13 15:54:00,
2013-08-13 11:04:00,67.0,-99.9,-100.00,North,-999,-999.0,-999.0,-999,0.00,,,0.00,,2013-08-13 16:04:00,
2013-08-13 11:13:00,67.0,-99.9,-100.00,North,-999,-999.0,-999.0,-999,0.00,,,0.00,,2013-08-13 16:13:00,
2013-08-13 11:15:00,64.0,-99.9,-100.00,North,-999,-999.0,-999.0,-999,1.00,,,1.00,,2013-08-13 16:15:00,
2013-08-13 11:45:00,64.0,-99.9,-100.00,North,-999,-999.0,-999.0,-999,1.00,,,1.00,,2013-08-13 16:45:00,
2013-08-13 11:54:00,64.0,-99.9,-100.00,North,-999,-999.0,-999.0,-999,1.00,,,1.00,,2013-08-13 16:54:00,
2013-08-13 12:06:00,64.0,-99.9,-100.00,North,-999,-999.0,-999.0,-999,1.00,,,1.00,,2013-08-13 17:06:00,
2013-08-13 12:15:00,63.0,-99.9,-100.00,North,-999,-999.0,-999.0,-999,7.00,,,8.00,,2013-08-13 17:15:00,
2013-08-13 12:56:00,63.0,-99.9,-100.00,North,-999,-999.0,-999.0,-999,7.00,,,8.00,,2013-08-13 17:56:00,
2013-08-13 13:05:00,63.0,-99.9,-100.00,North,-999,-999.0,-999.0,-999,7.00,,,8.00,,2013-08-13 18:05:00,
2013-08-13 14:15:00,67.0,-99.9,-100.00,North,-999,-999.0,-999.0,-999,0.00,,,10.00,,2013-08-13 19:15:00,
2013-08-13 14:55:00,67.0,-99.9,-100.00,North,-999,-999.0,-999.0,-999,0.00,,,10.00,,2013-08-13 19:55:00,
2013-08-13 15:04:00,67.0,-99.9,-100.00,North,-999,-999.0,-999.0,-999,0.00,,,10.00,,2013-08-13 20:04:00,
2013-08-13 15:45:00,69.0,-99.9,-100.00,North,-999,-999.0,-999.0,-999,0.00,,,10.00,,2013-08-13 20:45:00,
2013-08-13 15:53:00,69.0,-99.9,-100.00,North,-999,-999.0,-999.0,-999,0.00,,,10.00,,2013-08-13 20:53:00,
2013-08-13 16:01:00,69.0,-99.9,-100.00,North,-999,-999.0,-999.0,-999,0.00,,,10.00,,2013-08-13 21:01:00,
2013-08-13 16:11:00,69.0,-99.9,-100.00,North,-999,-999.0,-999.0,-999,0.00,,,10.00,,2013-08-13 21:11:00,
2013-08-13 16:46:00,73.0,-99.9,-100.00,North,-999,-999.0,-999.0,-999,0.00,,,10.00,,2013-08-13 21:46:00,
2013-08-13 16:54:00,73.0,-99.9,-100.00,North,-999,-999.0,-999.0,-999,0.00,,,10.00,,2013-08-13 21:54:00,
2013-08-13 17:04:00,73.0,-99.9,-100.00,North,-999,-999.0,-999.0,-999,0.00,,,10.00,,2013-08-13 22:04:00,
2013-08-13 17:13:00,73.0,-99.9,-100.00,North,-999,-999.0,-999.0,-999,0.00,,,10.00,,2013-08-13 22:13:00,
2013-08-13 17:51:00,74.0,-99.9,-100.00,North,-999,-999.0,-999.0,-999,0.00,,,10.00,,2013-08-13 22:51:00,
2013-08-13 17:57:00,74.0,-99.9,-100.00,North,-999,-999.0,-999.0,-999,0.00,,,10.00,,2013-08-13 22:57:00,
2013-08-13 18:04:00,74.0,-99.9,-100.00,North,-999,-999.0,-999.0,-999,0.00,,,10.00,,2013-08-13 23:04:00,
2013-08-13 18:13:00,74.0,-99.9,-100.00,North,-999,-999.0,-999.0,-999,0.00,,,10.00,,2013-08-13 23:13:00,
2013-08-13 18:47:00,74.0,-99.9,-100.00,North,-999,-999.0,-999.0,-999,0.00,,,10.00,,2013-08-13 23:47:00,
2013-08-13 18:57:00,74.0,-99.9,-100.00,North,-999,-999.0,-999.0,-999,0.00,,,10.00,,2013-08-13 23:57:00,
2013-08-13 19:04:00,74.0,-99.9,-100.00,North,-999,-999.0,-999.0,-999,0.00,,,10.00,,2013-08-14 00:04:00,
2013-08-13 19:11:00,74.0,-99.9,-100.00,North,-999,-999.0,-999.0,-999,0.00,,,10.00,,2013-08-14 00:11:00,
2013-08-13 19:42:00,73.0,-99.9,-100.00,North,-999,-999.0,-999.0,-999,0.00,,,10.00,,2013-08-14 00:42:00,
2013-08-13 19:52:00,73.0,-99.9,-100.00,North,-999,-999.0,-999.0,-999,0.00,,,10.00,,2013-08-14 00:52:00,
2013-08-13 20:01:00,73.0,-99.9,-100.00,North,-999,-999.0,-999.0,-999,0.00,,,10.00,,2013-08-14 01:01:00,
2013-08-13 20:11:00,73.0,-99.9,-100.00,North,-999,-999.0,-999.0,-999,0.00,,,10.00,,2013-08-14 01:11:00,
2013-08-13 20:42:00,70.0,-99.9,-100.00,North,-999,-999.0,-999.0,-999,0.00,,,10.00,,2013-08-14 01:42:00,
2013-08-13 20:53:00,70.0,-99.9,-100.00,North,-999,-999.0,-999.0,-999,0.00,,,10.00,,2013-08-14 01:53:00,
2013-08-13 21:02:00,70.0,-99.9,-100.00,North,-999,-999.0,-999.0,-999,0.00,,,10.00,,2013-08-14 02:02:00,
2013-08-13 21:11:00,70.0,-99.9,-100.00,North,-999,-999.0,-999.0,-999,0.00,,,10.00,,2013-08-14 02:11:00,
2013-08-13 21:52:00,68.0,-99.9,-100.00,North,-999,-999.0,-999.0,-999,0.00,,,10.00,,2013-08-14 02:52:00,
2013-08-13 22:01:00,68.0,-99.9,-100.00,North,-999,-999.0,-999.0,-999,0.00,,,10.00,,2013-08-14 03:01:00,
2013-08-13 22:11:00,68.0,-99.9,-100.00,North,-999,-999.0,-999.0,-999,0.00,,,10.00,,2013-08-14 03:11:00,
2013-08-13 22:43:00,66.0,-99.9,-100.00,North,-999,-999.0,-999.0,-999,0.00,,,10.00,,2013-08-14 03:43:00,
2013-08-13 22:53:00,66.0,-99.9,-100.00,North,-999,-999.0,-999.0,-999,0.00,,,10.00,,2013-08-14 03:53:00,
2013-08-13 23:03:00,66.0,-99.9,-100.00,North,-999,-999.0,-999.0,-999,0.00,,,10.00,,2013-08-14 04:03:00,
2013-08-13 23:12:00,66.0,-99.9,-100.00,North,-999,-999.0,-999.0,-999,0.00,,,10.00,,2013-08-14 04:12:00,
2013-08-13 23:42:00,64.0,-99.9,-100.00,North,-999,-999.0,-999.0,-999,0.00,,,10.00,,2013-08-14 04:42:00,
2013-08-13 23:52:00,64.0,-99.9,-100.00,North,-999,-999.0,-999.0,-999,0.00,,,10.00,,2013-08-14 04:52:00,